Weather History for PAGK - September, 2013

Change the Weather History Date:

Tuesday, September 17, 2013

  Actual Average Record
Temperature  
Mean Temperature 38 °F -  
Max Temperature 41 °F 53 °F 68 °F (2010)
Min Temperature 35 °F 33 °F 10 °F (2003)
Degree Days  
Heating Degree Days 27    
Moisture  
Dew Point 37 °F    
Average Humidity 94    
Maximum Humidity 100    
Minimum Humidity 86    
Precipitation  
Precipitation 0.12 in - - ()
Sea Level Pressure  
Sea Level Pressure 29.52 in    
Wind  
Wind Speed 5 mph (North)    
Max Wind Speed 9 mph    
Max Gust Speed -    
Visibility 10 miles    
Events Rain    
Averages and records for this station are not official NWS values.
T = Trace of Precipitation, MM = Missing Value Source: NWS Daily Summary

Daily Weather History Graph

Daily Weather History Graph

Search for Another Location

Airport or City:

Trip Planner

Search our weather history database for the weather conditions in past years. The results will help you decide how hot, cold, wet, or windy it might be!

Date:

Astronomy

Sep. 17, 2013 Rise Set
Actual Time 7:13 AM AKDT 7:57 PM AKDT
Civil Twilight 6:28 AM AKDT 8:41 PM AKDT
Nautical Twilight 5:32 AM AKDT 9:37 PM AKDT
Astronomical Twilight 4:28 AM AKDT 10:40 PM AKDT
Moon 6:59 PM AKDT (9/17) 4:56 AM AKDT (9/17)
Length of Visible Light 14h 13m
Length of Day
12h 43m
Waxing Gibbous, 96% of the Moon is Illuminated
Sep 17
Waxing Gibbous
Sep 19
Full
Sep 26
Last Quarter
Oct 4
New
Oct 11
First Quarter

Hourly Weather History & Observations

Time (AKDT) Temp. Windchill Dew Point Humidity Pressure Visibility Wind Dir Wind Speed Gust Speed Precip Events Conditions
12:44 AM 37.9 °F 31.5 °F 35.1 °F 89% 29.50 in 10.0 mi NNE 9.2 mph - 0.01 in Rain Light Rain
12:53 AM 37.9 °F 32.1 °F 36.0 °F 93% 29.54 in 8.0 mi NNE 8.1 mph - 0.01 in Rain Light Rain
1:36 AM 37.9 °F 31.5 °F 36.0 °F 93% 29.51 in 8.0 mi NNE 9.2 mph - 0.02 in Rain Light Rain
1:53 AM 37.9 °F 32.1 °F 36.0 °F 93% 29.55 in 9.0 mi NNE 8.1 mph - 0.03 in Rain Light Rain
2:16 AM 37.9 °F 33.5 °F 36.0 °F 93% 29.51 in 10.0 mi NNE 5.8 mph - 0.01 in Rain Light Rain
2:53 AM 37.9 °F - 36.0 °F 93% 29.54 in 10.0 mi Calm Calm - 0.03 in Rain Light Rain
3:20 AM 37.9 °F 35.5 °F 37.0 °F 97% 29.50 in 10.0 mi SSE 3.5 mph - 0.00 in Rain Light Rain
3:53 AM 37.0 °F 32.4 °F 37.0 °F 100% 29.54 in 10.0 mi South 5.8 mph - 0.00 in   Overcast
4:10 AM 37.0 °F 31.6 °F 36.0 °F 96% 29.50 in 10.0 mi SSW 6.9 mph - N/A   Overcast
4:53 AM 36.0 °F 32.1 °F 35.1 °F 97% 29.54 in 10.0 mi SSE 4.6 mph - N/A   Overcast
5:35 AM 36.0 °F 32.1 °F 35.1 °F 97% 29.50 in 10.0 mi SE 4.6 mph - N/A   Overcast
5:53 AM 35.1 °F 32.2 °F 34.0 °F 96% 29.55 in 10.0 mi SE 3.5 mph - N/A   Overcast
6:03 AM 36.0 °F - 35.1 °F 97% 29.50 in 10.0 mi Calm Calm - N/A   Overcast
6:24 AM 36.0 °F 33.3 °F 35.1 °F 97% 29.50 in 10.0 mi ESE 3.5 mph - N/A   Overcast
6:53 AM 36.0 °F 33.3 °F 35.1 °F 97% 29.55 in 10.0 mi ESE 3.5 mph - N/A   Overcast
7:49 AM 35.6 °F - 35.6 °F 100% 29.50 in 10.0 mi Calm Calm - 0.00 in Rain Light Rain
7:53 AM 36.0 °F - 35.1 °F 97% 29.55 in 10.0 mi Calm Calm - 0.01 in Rain Light Rain
8:12 AM 36.0 °F - 35.1 °F 97% 29.51 in 10.0 mi Calm Calm - 0.00 in Rain Light Rain
8:38 AM 37.0 °F - 36.0 °F 96% 29.51 in 10.0 mi Calm Calm - 0.00 in Rain Light Rain
8:53 AM 37.0 °F 34.5 °F 36.0 °F 96% 29.56 in 10.0 mi ESE 3.5 mph - 0.00 in Rain Light Rain
9:07 AM 37.0 °F 34.5 °F 36.0 °F 96% 29.50 in 10.0 mi ESE 3.5 mph - 0.01 in Rain Light Rain
9:39 AM 37.9 °F 35.5 °F 36.0 °F 93% 29.51 in 10.0 mi SE 3.5 mph - 0.01 in Rain Light Rain
9:48 AM 37.4 °F 34.9 °F 35.6 °F 93% 29.51 in 10.0 mi SE 3.5 mph - 0.01 in Rain Light Rain
9:53 AM 37.0 °F 34.5 °F 36.0 °F 96% 29.56 in 10.0 mi SE 3.5 mph - 0.01 in Rain Light Rain
10:17 AM 37.9 °F - 36.0 °F 93% 29.51 in 10.0 mi Calm Calm - 0.00 in Rain Light Rain
10:53 AM 37.9 °F - 36.0 °F 93% 29.56 in 10.0 mi Calm Calm - 0.00 in Rain Light Rain
11:53 AM 39.0 °F 36.8 °F 37.0 °F 93% 29.56 in 10.0 mi East 3.5 mph - 0.02 in Rain Light Rain
12:53 PM 39.9 °F 37.8 °F 36.0 °F 86% 29.56 in 10.0 mi NNE 3.5 mph - 0.01 in Rain Light Rain
1:26 PM 39.9 °F - 37.0 °F 89% 29.50 in 10.0 mi Calm Calm - 0.01 in Rain Light Rain
1:53 PM 39.9 °F 37.8 °F 37.0 °F 89% 29.55 in 10.0 mi North 3.5 mph - 0.01 in Rain Light Rain
2:02 PM 39.9 °F 37.8 °F 37.0 °F 89% 29.50 in 10.0 mi Variable 3.5 mph - 0.01 in Rain Light Rain
2:43 PM 39.9 °F 35.8 °F 37.0 °F 89% 29.50 in 10.0 mi North 5.8 mph - 0.02 in Rain Light Rain
2:53 PM 39.9 °F 36.7 °F 37.0 °F 89% 29.55 in 10.0 mi North 4.6 mph - 0.03 in Rain Light Rain
2:57 PM 39.9 °F 35.8 °F 37.0 °F 89% 29.49 in 10.0 mi North 5.8 mph - 0.00 in Rain Light Rain
3:11 PM 39.9 °F 37.8 °F 37.9 °F 93% 29.49 in 10.0 mi NNW 3.5 mph - 0.00 in Rain Light Rain
3:18 PM 39.9 °F 36.7 °F 37.0 °F 89% 29.49 in 9.0 mi North 4.6 mph - 0.00 in Rain Light Rain
3:28 PM 39.9 °F 36.7 °F 37.9 °F 93% 29.49 in 10.0 mi North 4.6 mph - 0.01 in Rain Light Rain
3:44 PM 39.9 °F 36.7 °F 37.9 °F 93% 29.49 in 10.0 mi NNW 4.6 mph - 0.01 in Rain Light Rain
3:53 PM 39.9 °F 35.8 °F 37.9 °F 93% 29.54 in 10.0 mi North 5.8 mph - 0.02 in Rain Light Rain
4:38 PM 39.9 °F 36.7 °F 37.9 °F 93% 29.48 in 9.0 mi NW 4.6 mph - 0.02 in Rain Light Rain
4:53 PM 39.9 °F 36.7 °F 37.9 °F 93% 29.54 in 10.0 mi NW 4.6 mph - 0.02 in Rain Light Rain
5:28 PM 39.9 °F 37.8 °F 37.9 °F 93% 29.48 in 10.0 mi NW 3.5 mph - 0.02 in Rain Light Rain
5:53 PM 39.9 °F 36.7 °F 37.9 °F 93% 29.54 in 10.0 mi NW 4.6 mph - 0.03 in Rain Light Rain
6:34 PM 39.9 °F - 39.0 °F 97% 29.49 in 10.0 mi Calm Calm - 0.01 in Rain Light Rain
6:53 PM 39.9 °F - 39.0 °F 97% 29.55 in 10.0 mi Calm Calm - 0.02 in Rain Light Rain
7:04 PM 39.9 °F - 39.0 °F 97% 29.49 in 10.0 mi Calm Calm - 0.00 in Rain Light Rain
7:31 PM 39.9 °F 36.7 °F 37.9 °F 93% 29.49 in 10.0 mi WNW 4.6 mph - 0.01 in Rain Light Rain
7:40 PM 39.9 °F - 37.9 °F 93% 29.49 in 10.0 mi Calm Calm - 0.01 in Rain Light Rain
7:53 PM 39.9 °F - 39.0 °F 97% 29.55 in 10.0 mi Calm Calm - 0.01 in Rain Light Rain
8:06 PM 39.0 °F - 37.9 °F 96% 29.50 in 10.0 mi Calm Calm - 0.00 in Rain Light Rain
8:15 PM 39.0 °F 36.8 °F 37.9 °F 96% 29.50 in 10.0 mi WNW 3.5 mph - 0.00 in Rain Light Rain
8:40 PM 39.0 °F 36.8 °F 37.9 °F 96% 29.50 in 10.0 mi WNW 3.5 mph - 0.00 in Rain Light Rain
8:53 PM 39.0 °F 36.8 °F 37.9 °F 96% 29.55 in 10.0 mi NW 3.5 mph - 0.00 in Rain Light Rain
9:53 PM 39.0 °F 36.8 °F 37.9 °F 96% 29.56 in 10.0 mi WNW 3.5 mph - 0.02 in Rain Light Rain
10:07 PM 39.0 °F 36.8 °F 37.9 °F 96% 29.50 in 10.0 mi West 3.5 mph - 0.01 in Rain Light Rain
10:18 PM 39.0 °F 36.8 °F 37.9 °F 96% 29.50 in 10.0 mi West 3.5 mph - 0.01 in Rain Light Rain
10:29 PM 39.0 °F 36.8 °F 37.9 °F 96% 29.51 in 10.0 mi West 3.5 mph - 0.01 in Rain Light Rain
10:53 PM 39.0 °F - 37.9 °F 96% 29.56 in 10.0 mi Calm Calm - 0.01 in Rain Light Rain
11:53 PM 37.9 °F - 37.9 °F 100% 29.57 in 10.0 mi Calm Calm - 0.01 in   Overcast